{"data":{"norad_id":39168,"epoch":"2026-05-24T20:38:54.913056Z","epoch_age_seconds":93912,"freshness":"FRESH","line1":"1 39168U 13024A   26144.86035779 -.00000288  00000+0  00000+0 0  9996","line2":"2 39168   0.0187 291.6352 0000397  51.9161 156.1185  1.00271056 46947","mean_motion":1.00271056,"eccentricity":3.97e-5,"inclination_deg":0.0187,"raan_deg":291.6352,"arg_perigee_deg":51.9161,"mean_anomaly_deg":156.1185,"bstar":0,"rev_number":4694,"period_min":1436.1073448753,"perigee_km":35785.12537962,"apogee_km":35788.473275565,"semimajor_km":42164.936327592,"source":"CELESTRAK","updated_at":"2026-05-25T13:38:13.943235Z"}}